This demonstration page uses our WeatherBlox Daily Observations layout. Learn more.

38.89511, -77.03637

Hourly Observations for January 14, 2018

Temp ( °F °C ) Dew Point ( °F °C ) Humidity (%) Winds ( mph kmh ) Pressure ( in mb ) Visibility ( mi km ) Precip ( " mm )
12:52 am 00:52 Mostly Clear 20 -6.7 2 -16.7 45 45 NW 20 31 30.53 1034 10 16.0934 0 0
1:52 am 01:52 Clear 20 -6.7 3 -16.1 48 48 NNW 17 28 30.55 1035 10 16.0934 0 0
2:52 am 02:52 Clear 19 -7.2 3 -16.1 49 49 NNW 15 24 30.57 1035 10 16.0934 0 0
3:52 am 03:52 Clear 19 -7.2 3 -16.1 49 49 NNW 15 24 30.58 1036 10 16.0934 0 0
4:52 am 04:52 Clear 18 -7.8 4 -15.6 54 54 NNW 17 28 30.59 1036 10 16.0934 0 0
5:52 am 05:52 Clear 18 -7.8 4 -15.6 54 54 NNW 16 26 30.61 1037 10 16.0934 0 0
6:52 am 06:52 Mostly Clear 17 -8.3 4 -15.6 56 56 NNW 15 24 30.64 1038 10 16.0934 0 0
7:52 am 07:52 Mostly Sunny 17 -8.3 4 -15.6 56 56 NNW 14 22 30.65 1038 10 16.0934 0 0
8:52 am 08:52 Mostly Sunny 19 -7.2 2 -16.7 47 47 NNW 14 22 30.68 1039 10 16.0934 0 0
9:52 am 09:52 Mostly Sunny 21 -6.1 0 -17.8 39 39 NNW 16 26 30.71 1040 10 16.0934 0 0
10:52 am 10:52 Mostly Sunny 23 -5 -1 -18.3 35 35 N 18 30 30.7 1040 10 16.0934 0 0
11:52 am 11:52 Mostly Sunny 25 -3.9 -1 -18.3 32 32 N 9 15 30.67 1039 10 16.0934 0 0
12:52 pm 12:52 Sunny 27 -2.8 -1 -18.3 29 29 NNW 13 20 30.65 1038 10 16.0934 0 0
1:52 pm 13:52 Sunny 28 -2.2 -1 -18.3 28 28 N 7 11 30.63 1037 10 16.0934 0 0
2:52 pm 14:52 Mostly Sunny 28 -2.2 -1 -18.3 28 28 NNW 10 17 30.62 1037 10 16.0934 0 0
3:52 pm 15:52 Mostly Cloudy 28 -2.2 -2 -18.9 27 27 N 12 19 30.63 1037 10 16.0934 0 0
4:52 pm 16:52 Mostly Cloudy 25 -3.9 0 -17.8 33 33 N 13 20 30.62 1037 10 16.0934 0 0
5:52 pm 17:52 Mostly Cloudy 25 -3.9 3 -16.1 39 39 N 8 13 30.62 1037 10 16.0934 0 0
6:52 pm 18:52 Partly Cloudy 23 -5 4 -15.6 44 44 N 10 17 30.65 1038 10 16.0934 0 0
7:52 pm 19:52 Partly Cloudy 23 -5 3 -16.1 42 42 NNE 10 17 30.66 1038 10 16.0934 0 0
8:52 pm 20:52 Mostly Cloudy 23 -5 5 -15 46 46 NNE 12 19 30.66 1038 10 16.0934 0 0
9:52 pm 21:52 Mostly Cloudy 22 -5.6 5 -15 48 48 ENE 9 15 30.66 1038 10 16.0934 0 0
10:52 pm 22:52 Mostly Cloudy 22 -5.6 5 -15 48 48 NNE 12 19 30.66 1038 10 16.0934 0 0
11:52 pm 23:52 Mostly Cloudy 21 -6.1 5 -15 50 50 NNE 8 13 30.65 1038 10 16.0934 0 0

Powered by AerisWeather